Location: 10033 Water Well
(34.0865°N, 106.8959°W)
Time: 19:12:02
(UTC+00:00)

Resurs 01 Rocket - Pass Details

Date: 14 April 2026
Orbit: 626 x 636 km, 97.7° (Epoch: 12 May)

Event Time Altitude Azimuth Distance (km) Brightness Sun altitude
Rises 02:08:40 0° 169° (S) 2,910 4.7 -7.0°
Reaches altitude 10° 02:10:52 10° 170° (S) 2,004 3.9 -7.5°
Maximum altitude 02:15:14 82° 258° (WSW) 641 1.7 -8.3°
Drops below altitude 10° 02:19:37 10° 346° (NNW) 2,011 4.6 -9.2°
Sets 02:21:49 0° 348° (NNW) 2,921 5.5 -9.6°
